AEHF-4 (USA 288)

Last updated on Tue Jul 08 2025 00:02:47 GMT+0000 (Coordinated Universal Time)

1 43651U 18079A 25188.55029550 -.00000256 00000+0 00000+0 0 9991 2 43651 1.4637 347.6257 0046696 4.4826 64.2499 1.00271576 24842
UTC large
Height (km)
Speed (km/s)
/
Latitude / Longitude
Inclination (degrees)
Orbital Period (minutes)
Azimuth
Elevation
Range (km)
Doppler Factor

Next 0 passes for location: London (51.5072 / 0.1276)

Sorry there are no passes over London.